User: anonymous   Login
Location: Hepcat Sky Observatory
(29.9800°N, 95.6500°W)
Time: 04:16:22
(UTC-05:00)
Language:

Cosmos 1602 Rocket - Orbit

View from above orbital plane
View from above orbital plane
View from above satellite
View from above satellite

Ground track
Ground track

The orbit data is extracted from the following two-line orbital elements,

1 15332U 84105B   17230.88478911 +.00000067 +00000-0 +52513-5 0  9995
2 15332 082.5360 129.4813 0021629 159.6454 247.0831 14.83314977754796
Epoch (UTC): 18 August 2017 21:14:05
Eccentricity: 0.0021629
inclination: 82.5360°
perigee height: 604 km
apogee height: 634 km
right ascension of ascending node: 129.4813°
argument of perigee: 159.6454°
revolutions per day: 14.83314977
mean anomaly at epoch: 247.0831°
orbit number at epoch: 75479

The dashed part of the orbit path shows where the satellite is in the earth's shadow,  

DLR